Flag for Germany Weather past 2 weeks in Luckenwalde, Brandenburg, Germany

Now
49 °F

Passing clouds.


Feels Like: 49 °F
Forecast: 33 / 44 °F
Wind: 3 mph from South

Location: Potsdam

Current Time: Feb 27, 2015 at 1:43:03 PM

Latest Report: Feb 27, 2015 at 1:00 PM


Visibility: 16 mi

Pressure: 29.89 "Hg

Humidity: 41%

Dew point: 27 °F

Location of LuckenwaldeLocation

Historic Weather in Luckenwalde — Graph

°F

Luckenwalde temperature yesterday

Maximum temperature yesterday: 49 °F (at 3:00 PM)
Minimum temperature yesterday: 28 °F (at 6:00 AM)
Average temperature yesterday: 38 °F

Past Weeks' High & Low Weather Summary

 TemperatureHumidityPressure
High50 °F (Feb 21, 12:00 PM)100% (Feb 13, 2:00 AM)30.74 "Hg (Feb 13, 2:00 AM)
Low25 °F (Feb 14, 8:00 AM)44% (Feb 26, 3:00 PM)29.38 "Hg (Feb 21, 12:00 PM)
Average36 °F82%30.03 "Hg
* Reported Feb 12 12:00 Noon — Feb 27 12:00 Noon, Luckenwalde, Weather by CustomWeather, © 2015

Note: Actual official high and low records may vary slightly from our data, if they occured in-between our weather recording intervals... More about our weather records

Advertising

Luckenwalde weather history for previous 24 hours

 ConditionsComfort  
Time TempWeatherWind HumidityBarometerVisibility
12:00 PM
Fri, Feb 27
47 °FSunny.3 mph52%29.90 "Hg9 mi
11:00 AM43 °FPassing clouds.2 mph62%29.90 "Hg15 mi
10:00 AM38 °FPassing clouds.3 mph70%29.90 "Hg12 mi
9:00 AM34 °FSunny.6 mph82%29.90 "Hg9 mi
8:00 AM30 °FSunny.5 mph90%29.90 "Hg7 mi
7:00 AM29 °FSunny.5 mph90%29.90 "Hg10 mi
6:00 AM30 °FClear.5 mph89%29.90 "Hg11 mi
5:00 AM30 °FClear.5 mph87%29.90 "Hg11 mi
4:00 AM31 °FClear.6 mph85%29.92 "Hg11 mi
3:00 AM32 °FClear.6 mph83%29.94 "Hg16 mi
2:00 AM34 °FClear.6 mph81%29.96 "Hg22 mi
1:00 AM35 °FClear.5 mph80%29.98 "Hg22 mi
12:00 AM34 °FClear.6 mph81%29.99 "Hg22 mi
11:00 PM
Thu, Feb 26
34 °FClear.6 mph79%30.01 "Hg22 mi
10:00 PM36 °FClear.6 mph74%30.03 "Hg22 mi
9:00 PM37 °FClear.5 mph71%30.04 "Hg22 mi
8:00 PM38 °FClear.5 mph66%30.06 "Hg22 mi
7:00 PM39 °FPassing clouds.5 mph61%30.07 "Hg22 mi
6:00 PM42 °FPassing clouds.5 mph52%30.08 "Hg17 mi
5:00 PM46 °FSunny.3 mph49%30.09 "Hg18 mi
4:00 PM47 °FSunny.5 mph44%30.10 "Hg19 mi
3:00 PM49 °FSunny.3 mph44%30.12 "Hg19 mi
2:00 PM48 °FPassing clouds.5 mph49%30.15 "Hg19 mi
1:00 PM48 °FPassing clouds.3 mph55%30.16 "Hg14 mi
Weather by CustomWeather, © 2015

See weather overviewHow to use our weather pages